Berlin, NH

8:19 PM EDT on October 23, 2017 (GMT -0400)
Berlin Municipal

Weather History for KBML - February, 1998

Change the Weather History Date:

Saturday, February 21, 1998

  Actual Average Record
Temperature  
Mean Temperature 32 °F -  
Max Temperature 33 °F 28 °F 42 °F (2003)
Min Temperature 30 °F 2 °F -23 °F (2015)
Degree Days  
Heating Degree Days 34    
Moisture  
Dew Point 27 °F    
Average Humidity 86    
Maximum Humidity 93    
Minimum Humidity 79    
Precipitation  
Precipitation 0.02 in - - ()
Sea Level Pressure  
Sea Level Pressure 29.58 in    
Wind  
Wind Speed 9 mph (WNW)    
Max Wind Speed 14 mph    
Max Gust Speed 20 mph    
Visibility 7 miles    
Events Snow    
Averages and records for this station are not official NWS values.
T = Trace of Precipitation, MM = Missing Value Source: NWS Daily Summary

Daily Weather History Graph

Daily Weather History Graph

Search for Another Location

Airport or City:

Trip Planner

Search our weather history database for the weather conditions in past years. The results will help you decide how hot, cold, wet, or windy it might be!

Date:

Astronomy

Feb. 21, 1998 Rise Set
Actual Time 6:35 AM EST 5:21 PM EST
Civil Twilight 6:06 AM EST 5:51 PM EST
Nautical Twilight 5:32 AM EST 6:25 PM EST
Astronomical Twilight 4:58 AM EST 6:58 PM EST
Moon 2:21 AM EST (2/21) 12:09 PM EST (2/21)
Length of Visible Light 11h 45m
Length of Day
10h 45m
Waning Crescent, 30% of the Moon is Illuminated
Feb 21
Waning Crescent
Feb 26
New
Mar 5
First Quarter
Mar 12
Full
Mar 21
Last Quarter

Hourly Weather History & Observations

Time (EST) Temp. Windchill Dew Point Humidity Pressure Visibility Wind Dir Wind Speed Gust Speed Precip Events Conditions
12:15 AM 33.8 °F 28.6 °F 28.4 °F 81% 29.46 in 10.0 mi West 5.8 mph - N/A   Overcast
12:52 AM 33.1 °F 28.7 °F 28.9 °F 85% 29.49 in 10.0 mi West 4.6 mph - N/A   Overcast
1:09 AM 33.8 °F 28.6 °F 28.4 °F 81% 29.46 in 10.0 mi Variable 5.8 mph - N/A   Overcast
1:52 AM 32.0 °F 23.0 °F 30.0 °F 92% 29.49 in 2.5 mi West 11.5 mph - 0.01 in Snow Light Snow
2:04 AM 32.0 °F 24.2 °F 30.2 °F 93% 29.46 in 3.0 mi WNW 9.2 mph 17.3 mph 0.00 in Snow Light Snow
2:11 AM 32.0 °F 23.6 °F 28.4 °F 87% 29.46 in 9.0 mi West 10.4 mph - 0.00 in   Overcast
2:52 AM 32.0 °F 22.5 °F 28.0 °F 85% 29.49 in 10.0 mi West 12.7 mph 17.3 mph 0.00 in   Overcast
3:52 AM 32.0 °F 24.2 °F 28.0 °F 85% 29.49 in 10.0 mi West 9.2 mph - 0.00 in   Overcast
4:28 AM 32.0 °F 23.0 °F 26.6 °F 80% 29.46 in 10.0 mi West 11.5 mph - N/A   Overcast
4:52 AM 30.9 °F 25.2 °F 28.0 °F 89% 29.51 in 5.0 mi WNW 5.8 mph - 0.00 in Snow Light Snow
5:02 AM 30.2 °F 23.4 °F 26.6 °F 86% 29.47 in 10.0 mi West 6.9 mph - 0.00 in   Overcast
5:43 AM 30.2 °F 22.6 °F 26.6 °F 86% 29.48 in 10.0 mi West 8.1 mph - 0.00 in   Overcast
5:52 AM 30.9 °F 23.5 °F 26.1 °F 82% 29.52 in 10.0 mi West 8.1 mph - 0.00 in   Overcast
6:52 AM 30.9 °F 25.2 °F 25.0 °F 79% 29.53 in 10.0 mi WNW 5.8 mph - N/A   Overcast
7:52 AM 30.9 °F 22.8 °F 27.0 °F 85% 29.54 in 10.0 mi WNW 9.2 mph - N/A   Overcast
8:52 AM 30.9 °F 22.2 °F 27.0 °F 85% 29.55 in 10.0 mi WNW 10.4 mph - N/A   Overcast
9:52 AM 30.9 °F 23.5 °F 27.0 °F 85% 29.55 in 8.0 mi West 8.1 mph - N/A   Overcast
10:52 AM 30.9 °F 23.5 °F 27.0 °F 85% 29.56 in 4.0 mi West 8.1 mph - N/A   Overcast
11:29 AM 30.2 °F 21.3 °F 28.4 °F 93% 29.52 in 2.0 mi WNW 10.4 mph 18.4 mph 0.00 in Snow Light Snow
11:52 AM 30.9 °F 21.2 °F 28.0 °F 89% 29.56 in 3.0 mi West 12.7 mph - 0.00 in   Overcast
12:12 PM 30.2 °F 20.8 °F 28.4 °F 93% 29.52 in 2.0 mi West 11.5 mph 19.6 mph 0.00 in Snow Light Snow
12:21 PM 30.2 °F 20.8 °F 28.4 °F 93% 29.52 in 1.8 mi West 11.5 mph 19.6 mph 0.01 in Snow Light Snow
12:36 PM 30.2 °F 21.3 °F 28.4 °F 93% 29.53 in 2.0 mi West 10.4 mph 18.4 mph 0.01 in Snow Light Snow
12:52 PM 30.9 °F 20.7 °F 28.0 °F 89% 29.57 in 3.0 mi West 13.8 mph 19.6 mph 0.01 in Snow Light Snow
1:52 PM 30.9 °F 22.2 °F 28.0 °F 89% 29.59 in 5.0 mi West 10.4 mph - 0.00 in   Overcast
2:21 PM 30.2 °F 19.8 °F 26.6 °F 86% 29.56 in 4.0 mi WNW 13.8 mph 19.6 mph N/A   Overcast
2:52 PM 30.0 °F 20.5 °F 27.0 °F 88% 29.61 in 4.0 mi West 11.5 mph 17.3 mph N/A   Overcast
3:45 PM 30.2 °F 19.8 °F 26.6 °F 86% 29.59 in 6.0 mi WNW 13.8 mph 19.6 mph 0.00 in   Overcast
3:52 PM 30.0 °F 20.5 °F 27.0 °F 88% 29.64 in 5.0 mi WNW 11.5 mph 19.6 mph 0.00 in   Overcast
4:43 PM 30.2 °F 21.9 °F 26.6 °F 86% 29.61 in 7.0 mi West 9.2 mph 17.3 mph N/A   Overcast
4:52 PM 30.0 °F 23.2 °F 26.1 °F 85% 29.66 in 8.0 mi West 6.9 mph - N/A   Overcast
5:52 PM 30.0 °F 23.2 °F 27.0 °F 88% 29.70 in 10.0 mi West 6.9 mph - N/A   Overcast
6:52 PM 30.0 °F 22.4 °F 26.1 °F 85% 29.73 in 10.0 mi West 8.1 mph - N/A   Overcast
7:52 PM 30.0 °F 22.4 °F 26.1 °F 85% 29.75 in 10.0 mi WNW 8.1 mph - N/A   Overcast
8:52 PM 30.0 °F 22.4 °F 26.1 °F 85% 29.77 in 10.0 mi West 8.1 mph - N/A   Overcast
9:52 PM 30.0 °F 21.7 °F 25.0 °F 82% 29.79 in 10.0 mi WNW 9.2 mph - N/A   Overcast
10:52 PM 30.0 °F 22.4 °F 25.0 °F 82% 29.82 in 10.0 mi West 8.1 mph - N/A   Overcast
11:52 PM 30.0 °F 20.0 °F 24.1 °F 79% 29.84 in 10.0 mi WNW 12.7 mph - N/A   Overcast